Location: Coopersdale
(40.3556°N, 78.9372°W)
Time: 03:36:15
(UTC+00:00)

Tiros 1 despin weight - Pass Details

Date: 24 January 2021
Orbit: 593 x 642 km, 48.2° (Epoch: 02 March)

Event Time Altitude Azimuth Distance (km) Brightness Sun altitude
Rises 18:20:11 0° 211° (SSW) 2,898 ? 29.4°
Reaches altitude 10° 18:22:41 10° 201° (SSW) 1,986 ? 29.3°
Maximum altitude 18:26:44 32° 139° (SE) 1,062 ? 29.1°
Drops below altitude 10° 18:30:46 10° 76° (ENE) 1,967 ? 28.9°
Sets 18:33:13 0° 66° (ENE) 2,866 ? 28.7°
